Weather History for Rawlins, WY

Change the Weather History Date:

Sunday, September 8, 2013

  Actual Average Record
Temperature  
Mean Temperature 68 °F 59 °F  
Max Temperature 81 °F 74 °F 88 °F (1998)
Min Temperature 54 °F 43 °F 24 °F (1962)
Degree Days  
Heating Degree Days 0 7  
Month to date heating degree days 0 44  
Since 1 July heating degree days 8 137  
Cooling Degree Days 3 0  
Month to date cooling degree days 49 2  
Year to date cooling degree days 371 183  
Growing Degree Days 18 (Base 50)    
Moisture  
Dew Point 47 °F    
Average Humidity 49    
Maximum Humidity 72    
Minimum Humidity 26    
Precipitation  
Precipitation 0.03 in 0.03 in 0.57 in (1989)
Month to date precipitation 0.09 0.23  
Year to date precipitation 3.86 6.78  
Sea Level Pressure  
Sea Level Pressure 29.89 in    
Wind  
Wind Speed 11 mph (WSW)    
Max Wind Speed 28 mph    
Max Gust Speed 37 mph    
Visibility 10 miles    
Events Rain    
T = Trace of Precipitation, MM = Missing Value Source: NWS Daily Summary

Daily Weather History Graph

Daily Weather History Graph

Search for Another Location

Airport:

Trip Planner

Search our weather history database for the weather conditions in past years. The results will help you decide how hot, cold, wet, or windy it might be!

Date:

Astronomy

Sep. 08, 2013 Rise Set
Actual Time 6:42 AM MDT 7:29 PM MDT
Civil Twilight 6:13 AM MDT 7:57 PM MDT
Nautical Twilight 5:40 AM MDT 8:31 PM MDT
Astronomical Twilight 5:05 AM MDT 9:05 PM MDT
Moon 10:06 AM MDT (9/8) 9:03 PM MDT (9/8)
Length of Visible Light 13h 44m
Length of Day
12h 47m
Waxing Crescent, 11% of the Moon is Illuminated
Sep 8
Waxing Crescent
Sep 12
First Quarter
Sep 19
Full
Sep 26
Last Quarter
Oct 4
New

Hourly Weather History & Observations

Time (MDT) Temp. Dew Point Humidity Pressure Visibility Wind Dir Wind Speed Gust Speed Precip Events Conditions
12:53 AM 63.0 °F 48.0 °F 58% 29.92 in 10.0 mi SSW 4.6 mph - N/A   Clear
1:53 AM 61.0 °F 48.0 °F 62% 29.91 in 10.0 mi WSW 10.4 mph - N/A   Clear
2:53 AM 60.1 °F 48.0 °F 64% 29.91 in 10.0 mi SW 9.2 mph - N/A   Partly Cloudy
3:53 AM 60.1 °F 48.9 °F 67% 29.92 in 10.0 mi WSW 13.8 mph - N/A   Scattered Clouds
4:53 AM 59.0 °F 48.0 °F 67% 29.91 in 10.0 mi West 5.8 mph - N/A   Clear
5:53 AM 59.0 °F 46.9 °F 64% 29.92 in 10.0 mi SW 4.6 mph - N/A   Clear
6:53 AM 55.9 °F 46.9 °F 72% 29.94 in 10.0 mi Calm Calm - N/A   Clear
7:53 AM 60.1 °F 46.9 °F 62% 29.95 in 10.0 mi Calm Calm - N/A   Clear
8:53 AM 62.1 °F 46.9 °F 58% 29.94 in 10.0 mi Calm Calm - N/A   Clear
9:53 AM 66.9 °F 46.0 °F 47% 29.93 in 10.0 mi Variable 4.6 mph - N/A   Clear
10:53 AM 71.1 °F 45.0 °F 39% 29.90 in 10.0 mi WSW 5.8 mph - N/A   Clear
11:53 AM 73.0 °F 45.0 °F 37% 29.88 in 10.0 mi Variable 4.6 mph 18.4 mph N/A   Clear
12:53 PM 80.1 °F 43.0 °F 27% 29.83 in 10.0 mi WSW 16.1 mph 25.3 mph N/A   Scattered Clouds
1:53 PM 78.1 °F 43.0 °F 29% 29.83 in 10.0 mi West 15.0 mph - N/A   Clear
2:53 PM 78.1 °F 43.0 °F 29% 29.81 in 10.0 mi SW 9.2 mph - N/A   Clear
3:53 PM 79.0 °F 42.1 °F 27% 29.78 in 10.0 mi WSW 17.3 mph 25.3 mph N/A   Scattered Clouds
4:24 PM 78.8 °F 46.4 °F 32% 30.08 in 10.0 mi West 23.0 mph 32.2 mph N/A   Scattered Clouds
4:53 PM 75.0 °F 46.9 °F 37% 29.81 in 10.0 mi NW 24.2 mph 36.8 mph N/A   Clear
5:53 PM 70.0 °F 46.9 °F 44% 29.84 in 10.0 mi West 21.9 mph 29.9 mph N/A   Clear
6:53 PM 64.0 °F 48.0 °F 56% 29.88 in 10.0 mi West 18.4 mph 26.5 mph 0.00 in   Overcast
7:53 PM 61.0 °F 50.0 °F 67% 29.88 in 10.0 mi West 19.6 mph 25.3 mph 0.00 in Rain Light Rain
8:53 PM 60.1 °F 52.0 °F 75% 29.89 in 10.0 mi West 13.8 mph - 0.00 in Rain Light Rain
9:53 PM 57.0 °F 53.1 °F 87% 29.90 in 10.0 mi SW 12.7 mph - 0.00 in   Mostly Cloudy
10:53 PM 57.0 °F 54.0 °F 89% 29.88 in 10.0 mi SW 9.2 mph - 0.01 in Rain Light Rain
11:53 PM 55.9 °F 54.0 °F 93% 29.87 in 10.0 mi WSW 6.9 mph - 0.02 in   Mostly Cloudy